Weather History for Guadalupe Pass, TX

Change the Weather History Date:

Wednesday, October 5, 2011

  Actual Average Record
Temperature  
Mean Temperature 68 °F -  
Max Temperature 79 °F 72 °F 89 °F (2005)
Min Temperature 57 °F 53 °F 45 °F (2001)
Cooling Degree Days 3    
Growing Degree Days 18 (Base 50)    
Moisture  
Dew Point 42 °F    
Average Humidity 45    
Maximum Humidity 75    
Minimum Humidity 19    
Precipitation  
Precipitation 0.00 in - - ()
Sea Level Pressure  
Sea Level Pressure 29.87 in    
Wind  
Wind Speed 12 mph (WSW)    
Max Wind Speed 34 mph    
Max Gust Speed 50 mph    
Visibility 10 miles    
Events      
Averages and records for this station are not official NWS values.
T = Trace of Precipitation, MM = Missing Value Source: NWS Daily Summary

Daily Weather History Graph

Daily Weather History Graph

Search for Another Location

Airport:

Trip Planner

Search our weather history database for the weather conditions in past years. The results will help you decide how hot, cold, wet, or windy it might be!

Date:

Astronomy

Oct. 05, 2011 Rise Set
Actual Time 6:55 AM MDT 6:39 PM MDT
Civil Twilight 6:31 AM MDT 7:03 PM MDT
Nautical Twilight 6:02 AM MDT 7:31 PM MDT
Astronomical Twilight 5:34 AM MDT 8:00 PM MDT
Moon 3:02 PM MDT (10/5) 1:05 AM MDT (10/5)
Length of Visible Light 12h 32m
Length of Day
11h 43m
Waxing Gibbous, 67% of the Moon is Illuminated
Oct 5
Waxing Gibbous
Oct 11
Full
Oct 19
Last Quarter
Oct 26
New
Nov 2
First Quarter

Hourly Weather History & Observations

Time (MDT) Temp. Dew Point Humidity Pressure Visibility Wind Dir Wind Speed Gust Speed Precip Events Conditions
12:51 AM 57.9 °F 48.9 °F 72% 29.95 in 10.0 mi NE 6.9 mph - N/A   Mostly Cloudy
1:51 AM 59.0 °F 48.9 °F 69% 29.94 in 10.0 mi Variable 3.5 mph - N/A   Partly Cloudy
2:51 AM 57.9 °F 48.9 °F 72% 29.93 in 10.0 mi ENE 3.5 mph - N/A   Mostly Cloudy
3:51 AM 60.1 °F 48.9 °F 67% 29.91 in 10.0 mi Variable 6.9 mph - N/A   Mostly Cloudy
4:51 AM 61.0 °F 48.9 °F 64% 29.90 in 10.0 mi WSW 8.1 mph - N/A   Overcast
5:51 AM 59.0 °F 50.0 °F 72% 29.91 in 10.0 mi WSW 9.2 mph - N/A   Overcast
6:51 AM 59.0 °F 51.1 °F 75% 29.95 in 10.0 mi WSW 10.4 mph - N/A   Overcast
7:51 AM 60.1 °F 51.1 °F 72% 29.95 in 9.0 mi WSW 9.2 mph - N/A   Clear
8:51 AM 61.0 °F 51.1 °F 70% 29.97 in 9.0 mi SW 11.5 mph - N/A   Clear
9:51 AM 66.0 °F 50.0 °F 56% 29.94 in 9.0 mi WSW 18.4 mph - N/A   Clear
10:51 AM 70.0 °F 48.9 °F 47% 29.91 in 10.0 mi WSW 26.5 mph - N/A   Clear
11:51 AM 73.0 °F 42.1 °F 33% 29.88 in 10.0 mi WSW 33.4 mph 49.5 mph N/A   Partly Cloudy
12:51 PM 75.0 °F 42.1 °F 31% 29.86 in 10.0 mi WSW 31.1 mph 41.4 mph N/A   Partly Cloudy
1:51 PM 77.0 °F 39.0 °F 25% 29.83 in 10.0 mi WSW 32.2 mph 40.3 mph N/A   Scattered Clouds
2:51 PM 77.0 °F 34.0 °F 21% 29.80 in 10.0 mi WSW 34.5 mph 48.3 mph N/A   Clear
3:51 PM 79.0 °F 33.1 °F 19% 29.78 in 10.0 mi WSW 25.3 mph 41.4 mph N/A   Clear
4:51 PM 77.0 °F 33.1 °F 20% 29.78 in 10.0 mi WSW 24.2 mph 40.3 mph N/A   Clear
5:51 PM 75.0 °F 34.0 °F 22% 29.81 in 10.0 mi WSW 18.4 mph 29.9 mph N/A   Clear
6:51 PM 71.1 °F 35.1 °F 27% 29.82 in 10.0 mi WSW 13.8 mph - N/A   Clear
7:51 PM 70.0 °F 34.0 °F 27% 29.84 in 10.0 mi West 9.2 mph - N/A   Clear
8:51 PM 69.1 °F 34.0 °F 27% 29.85 in 10.0 mi WSW 9.2 mph - N/A   Clear
9:51 PM 69.1 °F 35.1 °F 29% 29.84 in 10.0 mi Calm Calm - N/A   Clear
10:51 PM 68.0 °F 35.1 °F 30% 29.82 in 10.0 mi WSW 6.9 mph - N/A   Clear
11:51 PM 66.9 °F 35.1 °F 31% 29.81 in 10.0 mi SW 9.2 mph - N/A   Clear